Weather History for KFVE - January, 2013

Change the Weather History Date:

Wednesday, January 30, 2013

  Actual Average Record
Temperature  
Mean Temperature 32 °F 9 °F  
Max Temperature 43 °F 17 °F 43 °F (2013)
Min Temperature 21 °F 1 °F -22 °F (1997)
Degree Days  
Heating Degree Days 33    
Month to date heating degree days 1662  
Since 1 July heating degree days 5073  
Cooling Degree Days 0    
Month to date cooling degree days 0  
Year to date cooling degree days 0  
Moisture  
Dew Point 32 °F    
Average Humidity 93    
Maximum Humidity 100    
Minimum Humidity 63    
Precipitation  
Precipitation 0.05 in 0.04 in 0.46 in (2008)
Month to date precipitation 0.26 1.73  
Year to date precipitation 0.26 1.73  
Sea Level Pressure  
Sea Level Pressure 29.56 in    
Wind  
Wind Speed 14 mph (SSE)    
Max Wind Speed 21 mph    
Max Gust Speed 30 mph    
Visibility 5 miles    
Events Fog , Rain , Snow    
T = Trace of Precipitation, MM = Missing Value Source: NWS Daily Summary

Daily Weather History Graph

Daily Weather History Graph

Search for Another Location

Airport or City:

Trip Planner

Search our weather history database for the weather conditions in past years. The results will help you decide how hot, cold, wet, or windy it might be!

Date:

Astronomy

Jan. 30, 2013 Rise Set
Actual Time 7:01 AM EST 4:32 PM EST
Civil Twilight 6:28 AM EST 5:05 PM EST
Nautical Twilight 5:51 AM EST 5:42 PM EST
Astronomical Twilight 5:15 AM EST 6:18 PM EST
Moon 8:48 PM EST (1/30) 8:09 AM EST (1/30)
Length of Visible Light 10h 37m
Length of Day
9h 31m
Waning Gibbous, 88% of the Moon is Illuminated
Jan 30
Waning Gibbous
Feb 3
Last Quarter
Feb 10
New
Feb 17
First Quarter
Feb 25
Full

Hourly Weather History & Observations

Time (EST) Temp. Windchill Dew Point Humidity Pressure Visibility Wind Dir Wind Speed Gust Speed Precip Events Conditions
12:53 AM 21.9 °F 7.8 °F 10.9 °F 63% 30.03 in 10.0 mi SSE 17.3 mph - N/A   Overcast
1:12 AM 21.2 °F 7.8 °F 10.4 °F 63% 29.98 in 10.0 mi SSE 15.0 mph - N/A   Overcast
1:24 AM 21.2 °F 7.3 °F 12.2 °F 68% 29.98 in 10.0 mi SSE 16.1 mph - N/A   Overcast
1:53 AM 21.9 °F 8.2 °F 12.0 °F 66% 30.01 in 10.0 mi SSE 16.1 mph - N/A   Overcast
2:53 AM 21.9 °F 8.7 °F 15.1 °F 75% 29.96 in 7.0 mi SSE 15.0 mph 27.6 mph 0.00 in Snow Light Snow
3:42 AM 21.2 °F 6.8 °F 15.8 °F 80% 29.88 in 10.0 mi SSE 17.3 mph 25.3 mph 0.00 in   Overcast
3:53 AM 21.9 °F 8.2 °F 17.1 °F 82% 29.91 in 10.0 mi SSE 16.1 mph - 0.00 in   Overcast
4:30 AM 21.2 °F 6.8 °F 17.6 °F 86% 29.85 in 9.0 mi SSE 17.3 mph - 0.00 in Rain Light Freezing Rain
4:53 AM 21.0 °F 6.2 °F 19.0 °F 92% 29.87 in 8.0 mi SSE 18.4 mph - 0.00 in Rain Light Freezing Rain
5:24 AM 21.2 °F 6.8 °F 19.4 °F 93% 29.81 in 10.0 mi SSE 17.3 mph - 0.00 in   Overcast
5:53 AM 21.9 °F 7.8 °F 19.9 °F 92% 29.84 in 6.0 mi SSE 17.3 mph - 0.00 in Rain Light Freezing Rain
6:26 AM 24.8 °F 12.9 °F 23.0 °F 93% 29.77 in 4.0 mi SE 13.8 mph - 0.01 in Rain Light Freezing Rain
6:53 AM 25.0 °F 12.6 °F 24.1 °F 96% 29.79 in 4.0 mi SSE 15.0 mph - 0.01 in Snow Light Snow
7:17 AM 26.6 °F 13.8 °F 24.8 °F 93% 29.73 in 2.5 mi SSE 17.3 mph - 0.00 in Rain Light Freezing Rain
7:23 AM 26.6 °F 14.3 °F 24.8 °F 93% 29.73 in 1.5 mi SSE 16.1 mph - 0.00 in Rain Light Freezing Rain
7:31 AM 26.6 °F 13.8 °F 24.8 °F 93% 29.73 in 1.0 mi SSE 17.3 mph - 0.00 in Rain Light Freezing Rain
7:41 AM 26.6 °F 14.3 °F 26.6 °F 100% 29.72 in 0.2 mi SSE 16.1 mph - 0.01 in Fog , Rain Light Freezing Rain
7:53 AM 28.0 °F 15.3 °F 27.0 °F 96% 29.74 in 0.2 mi SSE 18.4 mph 24.2 mph 0.02 in Fog , Rain Light Freezing Rain
8:33 AM 30.2 °F 19.3 °F 28.4 °F 93% 29.68 in 1.8 mi SSE 15.0 mph - 0.02 in Rain Light Freezing Rain
8:36 AM 30.2 °F 20.2 °F 30.2 °F 100% 29.68 in 4.0 mi SSE 12.7 mph - 0.02 in Rain Light Freezing Rain
8:53 AM 30.9 °F 20.7 °F 30.9 °F 100% 29.70 in 10.0 mi SSE 13.8 mph 21.9 mph 0.02 in Rain Light Freezing Rain
9:21 AM 32.0 °F 21.2 °F 30.2 °F 93% 29.64 in 4.0 mi SSE 16.1 mph - 0.00 in   Overcast
9:27 AM 32.0 °F 21.6 °F 30.2 °F 93% 29.63 in 1.8 mi SSE 15.0 mph 25.3 mph 0.00 in Snow Light Snow
9:29 AM 32.0 °F 22.5 °F 30.2 °F 93% 29.63 in 1.0 mi SSE 12.7 mph 25.3 mph 0.00 in Snow Light Snow
9:37 AM 32.0 °F 21.2 °F 32.0 °F 100% 29.63 in 0.8 mi SSE 16.1 mph 21.9 mph 0.00 in   Overcast
9:42 AM 32.0 °F 21.6 °F 32.0 °F 100% 29.62 in 1.5 mi SSE 15.0 mph 21.9 mph 0.00 in   Overcast
9:45 AM 32.0 °F 20.8 °F 32.0 °F 100% 29.62 in 2.0 mi SSE 17.3 mph 25.3 mph 0.00 in   Overcast
9:53 AM 32.0 °F 21.2 °F 32.0 °F 100% 29.65 in 6.0 mi SSE 16.1 mph 25.3 mph 0.00 in   Overcast
10:53 AM 34.0 °F 23.0 °F 33.1 °F 96% 29.60 in 10.0 mi SSE 18.4 mph 25.3 mph N/A   Overcast
11:53 AM 36.0 °F 26.0 °F 35.1 °F 97% 29.57 in 10.0 mi South 17.3 mph 28.8 mph N/A   Overcast
12:53 PM 37.0 °F 26.7 °F 36.0 °F 96% 29.52 in 10.0 mi South 19.6 mph 26.5 mph N/A   Overcast
1:53 PM 37.0 °F 29.3 °F 36.0 °F 96% 29.48 in 10.0 mi SSE 11.5 mph 20.7 mph N/A   Overcast
2:53 PM 39.0 °F 30.6 °F 37.0 °F 93% 29.43 in 10.0 mi SSE 15.0 mph 26.5 mph N/A   Overcast
3:53 PM 37.9 °F 30.5 °F 37.0 °F 97% 29.41 in 10.0 mi SSE 11.5 mph - N/A   Overcast
4:53 PM 39.0 °F 31.4 °F 37.9 °F 96% 29.38 in 10.0 mi SSE 12.7 mph - N/A   Overcast
5:41 PM 39.2 °F 31.6 °F 37.4 °F 93% 29.33 in 10.0 mi SE 12.7 mph - N/A   Overcast
5:53 PM 39.0 °F 31.4 °F 37.9 °F 96% 29.35 in 10.0 mi SSE 12.7 mph - N/A   Overcast
6:53 PM 41.0 °F 33.9 °F 39.9 °F 96% 29.34 in 10.0 mi South 12.7 mph 18.4 mph 0.00 in   Overcast
7:35 PM 41.0 °F 33.9 °F 39.2 °F 93% 29.30 in 1.8 mi South 12.7 mph 23.0 mph N/A   Overcast
7:51 PM 41.0 °F 34.7 °F 41.0 °F 100% 29.30 in 2.0 mi South 10.4 mph 20.7 mph N/A   Overcast
7:53 PM 41.0 °F 34.7 °F 41.0 °F 100% 29.33 in 2.0 mi South 10.4 mph 20.7 mph N/A   Overcast
8:07 PM 41.0 °F 35.8 °F 41.0 °F 100% 29.31 in 1.5 mi South 8.1 mph - N/A   Overcast
8:15 PM 42.8 °F 37.5 °F 41.0 °F 93% 29.30 in 1.0 mi South 9.2 mph - N/A   Overcast
8:22 PM 42.8 °F 37.0 °F 41.0 °F 93% 29.31 in 1.8 mi South 10.4 mph - N/A   Overcast
8:29 PM 42.8 °F 37.5 °F 42.8 °F 100% 29.31 in 2.5 mi South 9.2 mph 18.4 mph N/A   Overcast
8:41 PM 42.8 °F 38.0 °F 42.8 °F 100% 29.32 in 1.8 mi South 8.1 mph - N/A   Overcast
8:49 PM 42.8 °F 38.6 °F 42.8 °F 100% 29.31 in 2.0 mi South 6.9 mph - N/A   Overcast
8:53 PM 42.1 °F 36.6 °F 42.1 °F 100% 29.34 in 2.5 mi South 9.2 mph - N/A   Overcast
9:14 PM 42.8 °F 38.6 °F 42.8 °F 100% 29.31 in 1.5 mi SSE 6.9 mph - N/A   Overcast
9:21 PM 42.8 °F 38.6 °F 42.8 °F 100% 29.31 in 1.2 mi SSE 6.9 mph - N/A   Overcast
9:30 PM 42.8 °F 38.0 °F 42.8 °F 100% 29.31 in 1.5 mi SSE 8.1 mph - N/A   Overcast
9:34 PM 42.8 °F 37.0 °F 42.8 °F 100% 29.31 in 2.0 mi SSE 10.4 mph - N/A   Overcast
9:37 PM 42.8 °F 37.0 °F 42.8 °F 100% 29.31 in 1.5 mi SSE 10.4 mph - N/A   Overcast
9:42 PM 42.8 °F 39.3 °F 41.0 °F 93% 29.31 in 0.8 mi SE 5.8 mph - N/A   Overcast
9:53 PM 41.0 °F 35.8 °F 41.0 °F 100% 29.33 in 0.2 mi SE 8.1 mph - N/A Fog Fog
10:36 PM 42.8 °F 37.5 °F 42.8 °F 100% 29.29 in 1.0 mi SSE 9.2 mph - N/A   Overcast
10:53 PM 42.1 °F 36.6 °F 41.0 °F 96% 29.30 in 0.2 mi SSE 9.2 mph - N/A Fog Fog
11:53 PM 41.0 °F 35.8 °F 41.0 °F 100% 29.29 in 0.2 mi SE 8.1 mph - N/A Fog Fog